SCP
0 0 0 0 0 0 0 0 0 0 0 0 0 0 0 0 0 0 0 0 0 0 0 0 0 0 0 0 0 0 0 0 0 0 0 0 0 0 0 0 0 0 0
0 0 0 0 0 0 0 0 0 0 0 0 0 0 0 0 0 0 0 0 0 0 0 0 0 0 0 0 0 0 0 0 0 0 0 0 0 0 0 0 0 0 0
0 0 0 0 0 0 0 0 0 0 0 0 0 0 0 0 0 0 0 0 0 0 0 0 0 0 0 0 0 0 0 0 0 0 0 0 0 0 0 0 0 0 0
0 0 0 0 0 0 0 0 0 0 0 0 0 0 0 0 0 0 0 0 0 0 0 0 0 0 0 0 0 0 0 0 0 0 0 0 0 0 0 0 0 0 0
0 0 0 0 0 0 0 0 0 0 0 0 0 0 0 0 0 0 0 0 0 0 0 0 0 0 0 0 0 0 0 0 0 0 0 0 0 0 0 0 0 0 0
0 0 0 0 0 0 0 0 0 0 0 0 0 0 0 0 0 0 0 0 0 0 0 0 0 0 0 0 0 0 0 0 0 0 0 0 0 0 0 0 0 0 0
0 0 0 0 0 0 0 0 0 0 0 0 0 0 0 0 0 0 0 0 0 0 0 0 0 0 0 0 0 0 0 0 0 0 0 0 0 0 0 0 0 0 0
0 0 0 0 0 0 0 0 0 0 0 0 0 0 0 0 0 0 0 0 0 0 0 0 0 0 0 0 0 0 0 0 0 0 0 0 0 0 0 0 0 0 0
0 0 0 0 0 0 0 0 0 0 0 0 0 0 0 0 0 0 0 0 0 0 0 0 0 0 0 0 0 0 0 0 0 0 0 0 0 0 0 0 0 0 0
0 0 0 0 0 0 0 0 0 0 0 0 0 0 0 0 0 0 0 0 0 0 0 0 0 0 0 0 0 0 0 0 0 0 0 0 0 0 0 0 0 0 0
0 0 0 0 0 0 0 0 0 0 0 0 0 0 0 0 0 0 0 0 0 0 0 0 0 0 0 0 0 0 0 0 0 0 0 0 0 0 0 0 0 0 0
0 0 0 0 0 0 0 0 0 0 0 0 0 0 0 0 0 0 0 0 0 0 0 0 0 0 0 0 0 0 0 0 0 0 0 0 0 0 0 0 0 0 0
0 0 0 0 0 0 0 0 0 0 0 0 0 0 0 0 0 0 0 0 0 0 0 0 0 0 0 0 0 0 0 0 0 0 0 0 0 0 0 0 0 0 0
0 0 0 0 0 0 0 0 0 0 0 0 0 0 0 0 0 0 0 0 0 0 0 0 0 0 0 0 0 0 0 0 0 0 0 0 0 0 0 0 0 0 0
0 0 0 0 0 0 0 0 0 0 0 0 0 0 0 0 0 0 0 0 0 0 0 0 0 0 0 0 0 0 0 0 0 0 0 0 0 0 0 0 0 0 0
0 0 0 0 0 0 0 0 0 0 0 0 0 0 0 0 0 0 0 0 0 0 0 0 0 0 0 0 0 0 0 0 0 0 0 0 0 0 0 0 0 0 0
0 0 0 0 0 0 0 0 0 0 0 0 0 0 0 0 0 0 0 0 0 0 0 0 0 0 0 0 0 0 0 0 0 0 0 0 0 0 0 0 0 0 0
-0 0 0 0 0 0 0 0 0 0 0 0 0 0 0 0 0 0 0 0 0 0 0 0 0 0 0 0 0 0 0 0 0 0 0 0 0 0 0 0 0 0 0
-0 0 0 0 0 0 0 0 0 0 0 0 0 0 0 0 0 0 0 0 0 0 0 0 0 0 0 0 0 0 0 0 0 0 0 0 0 0 0 0 0 0 0
0 0 0 0 0 0 0 0 0 0 0 0 0 0 0 0 0 0 0 0 0 0 0 0 0 0 0 0 0 0 0 0 0 0 0 0 0 0 0 0 0 0 0
0 0 0 0 0 0 0 0 0 0 0 0 0 0 0 0 0 0 0 0 0 0 0 0 0 0 0 0 0 0 0 0 0 0 0 0 0 0 0 0 0 0 0
0 0 0 0 0 0 0 0 0 0 0 0 0 0 0 0 0 0 0 0 0 0 0 0 0 0 0 0 0 0 0 0 0 0 0 0 0 0 0 0 0 0 0
0 0 0 0 0 0 0 0 0 0 0 0 0 0 0 0 0 0 0 0 0 0 0 0 0 0 0 0 0 0 0 0 0 0 0 0 0 0 0 0 0 0 0
0 0 0 0 0 0 0 0 0 0 0 0 0 0 0 0 0 0 0 0 0 0 0 0 0 0 0 0 0 0 0 0 0 0 0 0 0 0 0 0 0 0 0
0 0 0 0 0 0 0 0 0 0 0 0 0 0 0 0 0 0 0 0 0 0 0 0 0 0 0 0 0 0 0 0 0 0 0 0 0 0 0 0 0 0 0
0 0 0 0 0 0 0 0 0 0 0 0 0 0 0 0 0 0 0 0 0 0 0 0 0 0 0 0 0 0 0 0 0 0 0 0 0 0 0 0 0 0 0
Wind_Speed_500mb
81 85 87 92 99 98 100 98 98 96 93 91 88 81 70 66 70 71 72 72 66 60 55 50 46 41 45 46 42 44 44 40 44 47 43 36 34 31 27 25 25 25 23
79 83 79 83 93 97 98 96 96 97 93 89 86 82 74 69 71 73 74 71 65 60 54 48 45 46 47 43 44 44 39 44 41 42 38 33 37 33 28 25 23 23 18
61 76 71 81 94 98 95 90 93 94 91 89 86 84 78 73 76 76 75 70 64 55 48 47 50 49 49 48 39 40 41 40 39 42 42 38 36 30 24 19 17 17 18
47 53 70 82 90 92 89 86 87 90 89 88 87 82 78 77 76 75 70 63 56 52 53 52 54 52 49 43 39 46 40 34 35 41 40 37 32 24 17 16 16 18 22
47 54 56 69 81 83 84 82 82 85 87 86 83 82 79 77 76 68 65 63 57 56 55 52 54 52 46 41 40 44 33 28 29 32 33 31 22 15 15 15 17 24 26
51 52 53 59 63 77 83 79 80 84 85 83 81 78 75 73 67 65 61 61 59 57 57 55 51 46 39 37 34 28 25 28 28 28 27 23 19 12 8 15 21 26 29
59 57 52 57 63 67 63 71 76 81 79 79 75 71 68 65 63 61 61 58 57 55 52 52 46 41 37 34 30 25 23 18 18 18 21 18 11 7 11 18 22 27 34
72 71 62 59 62 64 65 65 72 79 78 76 72 65 63 61 60 60 58 55 51 47 46 43 41 40 36 34 32 30 25 16 15 17 17 14 8 8 16 21 27 34 35
77 73 69 66 66 67 68 69 73 76 73 68 67 63 60 59 60 59 58 56 53 47 46 42 41 37 30 35 35 32 24 18 19 19 16 11 9 16 22 28 29 32 35
73 67 73 75 70 69 69 70 71 69 66 64 64 62 57 59 63 62 60 54 54 51 48 46 40 37 38 37 31 27 23 20 20 17 14 12 15 19 22 24 29 33 37
67 67 70 79 72 70 67 64 66 67 67 65 64 61 59 59 55 54 55 53 51 53 51 52 48 43 41 37 32 29 23 22 20 17 14 13 15 16 20 25 31 33 34
67 66 68 74 76 72 67 66 65 67 68 67 65 63 60 54 52 52 52 50 49 50 52 53 50 44 41 37 32 28 25 21 17 15 14 12 12 17 20 23 26 26 28
60 66 66 68 74 69 69 73 70 71 71 72 71 66 61 59 55 54 54 54 53 53 53 48 43 43 43 37 30 28 25 19 17 15 15 15 12 15 16 17 19 23 27
57 62 63 65 70 72 73 71 74 77 77 74 70 67 68 66 66 65 64 63 60 59 56 49 44 43 41 36 34 29 23 18 16 17 11 8 9 10 13 17 20 22 24
54 60 65 67 69 72 72 74 77 74 71 71 72 70 73 74 74 71 73 74 70 62 56 54 52 51 46 41 36 28 22 18 13 7 3 3 6 10 15 19 22 26 27
52 56 62 71 73 74 78 78 75 70 65 64 61 61 63 61 62 71 69 67 61 57 59 59 57 53 46 40 35 29 22 14 9 4 3 3 6 11 15 19 22 25 28
48 54 58 69 79 83 85 85 84 74 64 62 57 54 55 55 63 70 66 59 57 59 60 60 55 51 45 39 32 26 19 16 12 9 4 3 7 12 16 20 24 28 31
51 46 58 61 77 85 88 86 86 84 79 73 66 60 58 58 63 67 67 64 67 64 59 57 53 46 41 36 31 25 23 20 17 12 5 2 9 17 22 26 30 31 34
61 52 52 60 69 78 84 85 87 83 80 78 73 68 65 61 62 66 68 68 70 69 65 57 49 45 40 35 31 28 25 21 17 11 3 5 13 21 26 30 32 33 36
58 50 47 61 72 69 79 87 88 84 83 80 79 82 79 74 79 82 81 76 69 64 60 54 50 44 40 37 34 30 25 19 12 6 1 9 16 22 27 30 32 33 35
57 51 47 57 72 74 77 85 88 88 86 84 87 88 88 89 88 91 82 75 67 62 58 56 52 48 45 42 37 30 23 16 9 4 7 12 18 24 27 30 33 34 35
54 49 51 58 68 80 82 83 89 90 89 88 90 89 88 92 93 85 80 73 66 60 57 53 50 48 44 39 34 28 20 13 7 7 10 16 21 24 27 30 32 32 33
52 51 55 63 75 85 85 87 89 92 92 95 96 96 100 99 92 85 80 72 67 64 59 55 52 50 45 38 31 24 17 12 8 9 15 19 21 24 26 29 30 30 32
49 50 57 65 79 86 89 89 93 97 103 106 104 108 108 105 100 92 83 75 71 66 61 58 53 45 39 33 25 20 16 11 10 13 17 19 21 24 26 26 28 29 30
48 49 57 69 83 86 88 90 94 99 102 104 108 112 114 105 95 89 82 77 72 68 64 59 52 45 37 26 23 18 14 12 13 16 17 19 21 22 23 25 25 27 28
50 51 59 68 82 86 89 91 94 96 102 107 109 112 109 99 93 89 84 79 74 70 64 56 49 36 29 28 22 18 16 16 16 16 17 17 19 21 22 23 23 24 25
Wind_Direction_500mb
248 251 250 252 251 251 250 251 251 249 246 246 248 248 246 239 235 233 236 241 243 245 246 245 246 238 238 245 252 257 251 255 264 267 272 285 283 290 279 274 280 286 301
248 248 248 255 253 247 247 250 249 246 243 243 244 244 244 240 233 233 234 239 244 245 244 242 240 240 245 250 250 258 243 254 261 266 270 272 281 282 275 282 284 300 302
255 243 246 250 247 249 249 248 245 242 241 240 239 241 240 236 232 231 235 239 242 244 243 246 248 243 245 256 248 254 262 259 262 267 271 272 271 271 275 275 287 294 314
274 265 252 243 245 246 249 248 246 243 241 239 238 238 237 235 232 232 235 237 237 240 245 243 250 248 253 251 253 259 259 253 261 269 269 262 262 261 268 277 281 294 324
300 286 265 248 243 246 246 246 244 243 239 237 235 235 234 231 232 233 233 234 234 239 242 236 242 247 245 244 247 253 245 244 249 256 259 258 249 253 261 282 304 321 329
293 284 279 263 252 243 243 244 241 239 236 233 230 232 234 231 230 230 231 232 233 233 235 235 242 238 234 238 243 225 218 228 237 253 248 240 241 249 293 323 332 334 334
299 287 276 270 258 250 247 242 241 238 235 233 232 231 231 231 230 226 226 227 227 227 228 233 230 223 226 226 213 210 201 206 229 237 235 228 222 237 306 325 327 329 329
291 286 279 271 264 253 243 240 234 233 231 230 230 227 227 227 224 223 222 221 222 221 226 215 217 220 219 216 200 189 193 208 217 210 208 210 222 299 318 321 325 328 328
283 282 279 268 261 254 246 237 230 229 231 230 228 225 219 223 225 220 217 213 214 211 211 214 208 213 207 192 189 193 197 196 199 195 200 213 277 312 319 322 326 328 336
290 283 279 266 258 251 243 236 233 231 227 221 220 222 221 219 221 216 214 215 209 208 204 200 196 193 194 189 194 199 189 188 191 197 212 254 292 314 324 331 338 341 344
296 284 275 264 255 249 239 229 225 222 220 219 219 220 218 216 215 215 209 212 211 203 197 184 189 193 193 191 191 191 186 183 189 201 237 273 306 320 326 338 339 339 339
289 287 276 262 249 240 233 224 220 218 217 217 215 212 211 211 209 210 203 196 195 196 186 185 190 190 191 187 188 191 183 184 200 232 258 278 292 309 332 340 343 344 340
290 288 272 248 238 234 228 220 212 214 213 211 209 210 206 197 193 189 187 188 191 190 190 191 193 192 191 189 184 180 185 198 223 241 254 270 300 324 343 354 357 354 348
292 288 270 245 236 228 222 219 215 209 209 212 212 206 200 197 193 190 188 188 190 189 192 190 189 186 186 186 185 185 193 213 230 240 255 297 329 348 2 8 4 358 346
296 284 270 248 235 227 222 219 217 219 220 218 215 212 205 202 200 196 192 190 193 196 193 189 186 186 188 186 186 188 191 201 213 239 288 336 2 10 9 4 355 345 338
297 280 269 250 235 228 223 218 219 223 224 221 224 222 213 213 205 197 198 201 202 201 193 191 189 190 190 189 187 183 179 181 180 177 107 62 20 5 356 347 344 336 333
298 280 269 256 241 229 224 221 218 215 217 221 215 215 213 212 204 202 204 203 202 197 196 192 194 191 190 186 181 170 170 170 157 146 132 28 358 347 344 334 331 333 333
310 282 270 261 251 238 230 226 224 219 208 205 208 209 205 205 205 203 200 195 192 192 195 197 195 192 186 181 175 170 168 166 158 153 152 14 345 338 331 329 331 332 334
308 289 269 263 255 247 236 229 225 222 215 209 201 199 201 202 204 202 202 201 199 197 196 197 195 188 181 177 174 168 166 163 160 157 141 348 340 330 329 330 331 334 336
297 285 269 262 253 246 242 233 226 223 219 212 204 199 193 194 195 196 199 198 201 205 200 194 186 182 180 176 169 163 164 170 170 167 312 332 332 329 329 328 330 333 334
289 284 271 255 254 250 242 236 232 224 220 214 209 206 204 200 199 203 198 197 199 203 199 191 185 182 177 171 166 165 170 177 190 240 310 326 329 327 328 327 328 329 331
285 276 263 252 250 245 242 236 233 227 221 215 211 208 205 205 206 203 201 199 194 196 194 190 183 177 173 170 166 166 173 185 215 275 309 322 325 327 326 325 324 327 330
281 268 257 252 245 239 236 235 230 228 223 218 215 206 207 208 206 202 199 194 191 190 188 184 181 176 173 172 170 170 181 202 237 285 307 318 322 323 322 320 322 326 330
276 263 252 252 242 233 230 229 227 225 222 218 211 209 210 208 203 197 192 188 186 185 183 180 177 176 175 176 174 183 200 219 260 289 308 316 319 319 318 318 320 326 329
273 260 250 246 242 235 231 229 228 225 225 219 212 210 209 204 198 189 184 183 182 182 181 180 178 176 176 181 192 203 219 249 276 296 308 313 315 316 314 316 321 324 323
264 257 252 245 238 235 234 231 229 227 224 220 215 212 208 200 192 184 180 180 178 178 180 178 178 174 190 197 204 217 241 266 285 297 305 308 310 309 311 313 314 314 313
Wind_Speed_850mb
81 85 87 92 99 98 100 98 98 96 93 91 88 81 70 66 70 71 72 72 66 60 55 50 46 41 45 46 42 44 44 40 44 47 43 36 34 31 27 25 25 25 23
79 83 79 83 93 97 98 96 96 97 93 89 86 82 74 69 71 73 74 71 65 60 54 48 45 46 47 43 44 44 39 44 41 42 38 33 37 33 28 25 23 23 18
61 76 71 81 94 98 95 90 93 94 91 89 86 84 78 73 76 76 75 70 64 55 48 47 50 49 49 48 39 40 41 40 39 42 42 38 36 30 24 19 17 17 18
47 53 70 82 90 92 89 86 87 90 89 88 87 82 78 77 76 75 70 63 56 52 53 52 54 52 49 43 39 46 40 34 35 41 40 37 32 24 17 16 16 18 22
47 54 56 69 81 83 84 82 82 85 87 86 83 82 79 77 76 68 65 63 57 56 55 52 54 52 46 41 40 44 33 28 29 32 33 31 22 15 15 15 17 24 26
51 52 53 59 63 77 83 79 80 84 85 83 81 78 75 73 67 65 61 61 59 57 57 55 51 46 39 37 34 28 25 28 28 28 27 23 19 12 8 15 21 26 29
59 57 52 57 63 67 63 71 76 81 79 79 75 71 68 65 63 61 61 58 57 55 52 52 46 41 37 34 30 25 23 18 18 18 21 18 11 7 11 18 22 27 34
72 71 62 59 62 64 65 65 72 79 78 76 72 65 63 61 60 60 58 55 51 47 46 43 41 40 36 34 32 30 25 16 15 17 17 14 8 8 16 21 27 34 35
77 73 69 66 66 67 68 69 73 76 73 68 67 63 60 59 60 59 58 56 53 47 46 42 41 37 30 35 35 32 24 18 19 19 16 11 9 16 22 28 29 32 35
73 67 73 75 70 69 69 70 71 69 66 64 64 62 57 59 63 62 60 54 54 51 48 46 40 37 38 37 31 27 23 20 20 17 14 12 15 19 22 24 29 33 37
67 67 70 79 72 70 67 64 66 67 67 65 64 61 59 59 55 54 55 53 51 53 51 52 48 43 41 37 32 29 23 22 20 17 14 13 15 16 20 25 31 33 34
67 66 68 74 76 72 67 66 65 67 68 67 65 63 60 54 52 52 52 50 49 50 52 53 50 44 41 37 32 28 25 21 17 15 14 12 12 17 20 23 26 26 28
60 66 66 68 74 69 69 73 70 71 71 72 71 66 61 59 55 54 54 54 53 53 53 48 43 43 43 37 30 28 25 19 17 15 15 15 12 15 16 17 19 23 27
57 62 63 65 70 72 73 71 74 77 77 74 70 67 68 66 66 65 64 63 60 59 56 49 44 43 41 36 34 29 23 18 16 17 11 8 9 10 13 17 20 22 24
54 60 65 67 69 72 72 74 77 74 71 71 72 70 73 74 74 71 73 74 70 62 56 54 52 51 46 41 36 28 22 18 13 7 3 3 6 10 15 19 22 26 27
52 56 62 71 73 74 78 78 75 70 65 64 61 61 63 61 62 71 69 67 61 57 59 59 57 53 46 40 35 29 22 14 9 4 3 3 6 11 15 19 22 25 28
48 54 58 69 79 83 85 85 84 74 64 62 57 54 55 55 63 70 66 59 57 59 60 60 55 51 45 39 32 26 19 16 12 9 4 3 7 12 16 20 24 28 31
51 46 58 61 77 85 88 86 86 84 79 73 66 60 58 58 63 67 67 64 67 64 59 57 53 46 41 36 31 25 23 20 17 12 5 2 9 17 22 26 30 31 34
61 52 52 60 69 78 84 85 87 83 80 78 73 68 65 61 62 66 68 68 70 69 65 57 49 45 40 35 31 28 25 21 17 11 3 5 13 21 26 30 32 33 36
58 50 47 61 72 69 79 87 88 84 83 80 79 82 79 74 79 82 81 76 69 64 60 54 50 44 40 37 34 30 25 19 12 6 1 9 16 22 27 30 32 33 35
57 51 47 57 72 74 77 85 88 88 86 84 87 88 88 89 88 91 82 75 67 62 58 56 52 48 45 42 37 30 23 16 9 4 7 12 18 24 27 30 33 34 35
54 49 51 58 68 80 82 83 89 90 89 88 90 89 88 92 93 85 80 73 66 60 57 53 50 48 44 39 34 28 20 13 7 7 10 16 21 24 27 30 32 32 33
52 51 55 63 75 85 85 87 89 92 92 95 96 96 100 99 92 85 80 72 67 64 59 55 52 50 45 38 31 24 17 12 8 9 15 19 21 24 26 29 30 30 32
49 50 57 65 79 86 89 89 93 97 103 106 104 108 108 105 100 92 83 75 71 66 61 58 53 45 39 33 25 20 16 11 10 13 17 19 21 24 26 26 28 29 30
48 49 57 69 83 86 88 90 94 99 102 104 108 112 114 105 95 89 82 77 72 68 64 59 52 45 37 26 23 18 14 12 13 16 17 19 21 22 23 25 25 27 28
50 51 59 68 82 86 89 91 94 96 102 107 109 112 109 99 93 89 84 79 74 70 64 56 49 36 29 28 22 18 16 16 16 16 17 17 19 21 22 23 23 24 25
Wind_Direction_850mb
248 251 250 252 251 251 250 251 251 249 246 246 248 248 246 239 235 233 236 241 243 245 246 245 246 238 238 245 252 257 251 255 264 267 272 285 283 290 279 274 280 286 301
248 248 248 255 253 247 247 250 249 246 243 243 244 244 244 240 233 233 234 239 244 245 244 242 240 240 245 250 250 258 243 254 261 266 270 272 281 282 275 282 284 300 302
255 243 246 250 247 249 249 248 245 242 241 240 239 241 240 236 232 231 235 239 242 244 243 246 248 243 245 256 248 254 262 259 262 267 271 272 271 271 275 275 287 294 314
274 265 252 243 245 246 249 248 246 243 241 239 238 238 237 235 232 232 235 237 237 240 245 243 250 248 253 251 253 259 259 253 261 269 269 262 262 261 268 277 281 294 324
300 286 265 248 243 246 246 246 244 243 239 237 235 235 234 231 232 233 233 234 234 239 242 236 242 247 245 244 247 253 245 244 249 256 259 258 249 253 261 282 304 321 329
293 284 279 263 252 243 243 244 241 239 236 233 230 232 234 231 230 230 231 232 233 233 235 235 242 238 234 238 243 225 218 228 237 253 248 240 241 249 293 323 332 334 334
299 287 276 270 258 250 247 242 241 238 235 233 232 231 231 231 230 226 226 227 227 227 228 233 230 223 226 226 213 210 201 206 229 237 235 228 222 237 306 325 327 329 329
291 286 279 271 264 253 243 240 234 233 231 230 230 227 227 227 224 223 222 221 222 221 226 215 217 220 219 216 200 189 193 208 217 210 208 210 222 299 318 321 325 328 328
283 282 279 268 261 254 246 237 230 229 231 230 228 225 219 223 225 220 217 213 214 211 211 214 208 213 207 192 189 193 197 196 199 195 200 213 277 312 319 322 326 328 336
290 283 279 266 258 251 243 236 233 231 227 221 220 222 221 219 221 216 214 215 209 208 204 200 196 193 194 189 194 199 189 188 191 197 212 254 292 314 324 331 338 341 344
296 284 275 264 255 249 239 229 225 222 220 219 219 220 218 216 215 215 209 212 211 203 197 184 189 193 193 191 191 191 186 183 189 201 237 273 306 320 326 338 339 339 339
289 287 276 262 249 240 233 224 220 218 217 217 215 212 211 211 209 210 203 196 195 196 186 185 190 190 191 187 188 191 183 184 200 232 258 278 292 309 332 340 343 344 340
290 288 272 248 238 234 228 220 212 214 213 211 209 210 206 197 193 189 187 188 191 190 190 191 193 192 191 189 184 180 185 198 223 241 254 270 300 324 343 354 357 354 348
292 288 270 245 236 228 222 219 215 209 209 212 212 206 200 197 193 190 188 188 190 189 192 190 189 186 186 186 185 185 193 213 230 240 255 297 329 348 2 8 4 358 346
296 284 270 248 235 227 222 219 217 219 220 218 215 212 205 202 200 196 192 190 193 196 193 189 186 186 188 186 186 188 191 201 213 239 288 336 2 10 9 4 355 345 338
297 280 269 250 235 228 223 218 219 223 224 221 224 222 213 213 205 197 198 201 202 201 193 191 189 190 190 189 187 183 179 181 180 177 107 62 20 5 356 347 344 336 333
298 280 269 256 241 229 224 221 218 215 217 221 215 215 213 212 204 202 204 203 202 197 196 192 194 191 190 186 181 170 170 170 157 146 132 28 358 347 344 334 331 333 333
310 282 270 261 251 238 230 226 224 219 208 205 208 209 205 205 205 203 200 195 192 192 195 197 195 192 186 181 175 170 168 166 158 153 152 14 345 338 331 329 331 332 334
308 289 269 263 255 247 236 229 225 222 215 209 201 199 201 202 204 202 202 201 199 197 196 197 195 188 181 177 174 168 166 163 160 157 141 348 340 330 329 330 331 334 336
297 285 269 262 253 246 242 233 226 223 219 212 204 199 193 194 195 196 199 198 201 205 200 194 186 182 180 176 169 163 164 170 170 167 312 332 332 329 329 328 330 333 334
289 284 271 255 254 250 242 236 232 224 220 214 209 206 204 200 199 203 198 197 199 203 199 191 185 182 177 171 166 165 170 177 190 240 310 326 329 327 328 327 328 329 331
285 276 263 252 250 245 242 236 233 227 221 215 211 208 205 205 206 203 201 199 194 196 194 190 183 177 173 170 166 166 173 185 215 275 309 322 325 327 326 325 324 327 330
281 268 257 252 245 239 236 235 230 228 223 218 215 206 207 208 206 202 199 194 191 190 188 184 181 176 173 172 170 170 181 202 237 285 307 318 322 323 322 320 322 326 330
276 263 252 252 242 233 230 229 227 225 222 218 211 209 210 208 203 197 192 188 186 185 183 180 177 176 175 176 174 183 200 219 260 289 308 316 319 319 318 318 320 326 329
273 260 250 246 242 235 231 229 228 225 225 219 212 210 209 204 198 189 184 183 182 182 181 180 178 176 176 181 192 203 219 249 276 296 308 313 315 316 314 316 321 324 323
264 257 252 245 238 235 234 231 229 227 224 220 215 212 208 200 192 184 180 180 178 178 180 178 178 174 190 197 204 217 241 266 285 297 305 308 310 309 311 313 314 314 313